Flag for Germany Weather past 2 weeks in Güstrow, Mecklenburg-Western Pomerania, Germany

Now
79 °F

Partly sunny.


Feels Like: 79 °F
Forecast: 60 / 81 °F
Wind: 8 mph from South

Location: Laage

Current Time: Aug 1, 2014 at 7:00:54 PM

Latest Report: Aug 1, 2014 at 6:20 PM


Visibility: N/A

Pressure: 29.89 "Hg

Humidity: 42%

Dew point: 54 °F

Location of GüstrowLocation

Historic Weather in Güstrow — Graph

°F

Güstrow temperature yesterday

Maximum temperature yesterday: 75 °F (at 3:20 PM)
Minimum temperature yesterday: 59 °F (at 2:20 AM)
Average temperature yesterday: 67 °F

Past Weeks' High & Low Weather Summary

 TemperatureHumidityPressure
High84 °F (Jul 19, 2:20 PM)100% (Jul 22, 3:20 AM)30.18 "Hg (Jul 22, 3:20 AM)
Low55 °F (Jul 18, 2:20 AM)35% (Jul 19, 3:20 PM)29.71 "Hg (Jul 30, 5:20 AM)
Average71 °F71%29.97 "Hg
* Reported Jul 17 5:20 PM — Aug 1 5:20 PM, Güstrow, Weather by CustomWeather, © 2014

Note: Actual official high and low records may vary slightly from our data, if they occured in-between our weather recording intervals... More about our weather records

Advertising

Güstrow weather history for previous 24 hours

 ConditionsComfort  
Time TempWeatherWind HumidityBarometerVisibility
5:20 PM
Aug 1
79 °FPartly sunny.10 mph39%29.92 "HgN/A
4:20 PM81 °FScattered clouds.10 mph39%29.92 "HgN/A
3:20 PM79 °FScattered clouds.10 mph39%29.92 "HgN/A
2:20 PM79 °FScattered clouds.9 mph39%29.92 "HgN/A
1:20 PM79 °FPassing clouds.10 mph42%29.95 "HgN/A
12:20 PM77 °FPassing clouds.9 mph44%29.95 "HgN/A
11:20 AM75 °FPassing clouds.8 mph47%29.95 "HgN/A
10:20 AM75 °FPassing clouds.6 mph50%29.98 "HgN/A
9:20 AM72 °FPassing clouds.6 mph61%29.98 "HgN/A
8:20 AM68 °FScattered clouds.3 mph69%29.95 "HgN/A
7:20 AM63 °FPartly sunny.2 mph83%29.95 "HgN/A
6:20 AM57 °FFog.2 mph94%29.95 "HgN/A
5:20 AM55 °FFog.No wind94%29.95 "HgN/A
4:20 AM57 °FPassing clouds.No wind88%29.98 "HgN/A
3:20 AM57 °FPassing clouds.No wind88%29.98 "HgN/A
2:20 AM57 °FPassing clouds.No wind88%29.98 "HgN/A
1:20 AM57 °FPassing clouds.No wind94%29.98 "HgN/A
12:20 AM59 °FPassing clouds.1 mph88%29.98 "HgN/A
11:20 PM
Jul 31
59 °FPassing clouds.No wind88%29.98 "HgN/A
10:20 PM63 °FPassing clouds.2 mph77%29.95 "HgN/A
9:20 PM66 °FPassing clouds.5 mph68%29.95 "HgN/A
8:20 PM72 °FPassing clouds.3 mph65%29.95 "HgN/A
7:45 PM72 °FPassing clouds.5 mph61%29.92 "HgN/A
7:20 PM73 °FPassing clouds.7 mph53%29.92 "HgN/A
Weather by CustomWeather, © 2014

See weather overviewHow to use our weather pages